Inquirer Daily News

Weather

Get conditions and forecasts for any City, State, ZIP code or Country:  
Northeast Philadelphia, PA
on Tuesday, February 12, 2013

Tuesday
Previous Day Next Day
Daily Summary
 ActualAverage (KTTN)Record (KTTN)
Temperature
Mean Temperature °F 33°F  
Max Temperature 46°F 41°F 68°F (1999)
Min Temperature 32°F 25°F -2°F (1907)
Degree Days
Heating Degree Days 26 32  
Month to date heating degree days 390  
Since 1 July heating degree days 3336  
Cooling Degree Days 0 0  
Month to date cooling degree days 0  
Year to date cooling degree days 0  
Moisture
Dew Point 25°F   
Average Humidity 54    
Maximum Humidity 79    
Minimum Humidity 42    
Precipitation
Precipitation 0.00 in 0.09 in 1.70 in (1988)
Month to date precipitation 0.91  
Year to date precipitation 4.07  
Wind
Wind Speed 10 mph   
Max Wind Speed 21 mph   
Max Gust Speed 31 mph   
Visibility 10 miles   
Events     

Key: T is trace of precipitation, MM is missing value
Source: NWS Daily Summary
Time(EST)TemperatureDew PointHumidity Pressure Visibility Wind DirectionWind SpeedGust SpeedPrecipitationEvents Conditions
12:54 AM 42.1°F 36.0°F 79% 29.80 in 10.0 miles West 3.5 mph - N/A   Clear
1:54 AM 41.0°F 30.9°F 67% 29.81 in 10.0 miles West 8.1 mph - N/A   Clear
2:54 AM 39.0°F 28.0°F 65% 29.82 in 10.0 miles West 6.9 mph - N/A   Clear
3:54 AM 37.0°F 28.0°F 70% 29.84 in 10.0 miles West 8.1 mph - N/A   Clear
4:54 AM 39.9°F 26.1°F 58% 29.85 in 10.0 miles NW 15.0 mph 24.2 mph N/A   Partly Cloudy
5:54 AM 41.0°F 23.0°F 49% 29.89 in 10.0 miles NW 13.8 mph 25.3 mph N/A   Overcast
6:54 AM 39.9°F 24.1°F 53% 29.90 in 10.0 miles West 9.2 mph - N/A   Overcast
7:54 AM 39.9°F 25.0°F 55% 29.93 in 10.0 miles WSW 8.1 mph - N/A   Overcast
8:54 AM 43.0°F 25.0°F 49% 29.94 in 10.0 miles West 18.4 mph 24.2 mph N/A   Partly Cloudy
9:54 AM 44.1°F 24.1°F 45% 29.95 in 10.0 miles WNW 18.4 mph 31.1 mph N/A   Scattered Clouds
10:54 AM 45.0°F 24.1°F 44% 29.96 in 10.0 miles WNW 16.1 mph 29.9 mph N/A   Partly Cloudy
11:54 AM 46.0°F 25.0°F 44% 29.97 in 10.0 miles WNW 20.7 mph 28.8 mph N/A   Partly Cloudy
12:54 PM 46.0°F 25.0°F 44% 29.96 in 10.0 miles WNW 18.4 mph 28.8 mph N/A   Partly Cloudy
1:54 PM 46.0°F 25.0°F 44% 29.96 in 10.0 miles NW 16.1 mph 24.2 mph N/A   Clear
2:54 PM 45.0°F 23.0°F 42% 29.93 in 10.0 miles WNW 13.8 mph 26.5 mph N/A   Clear
3:54 PM 45.0°F 23.0°F 42% 29.88 in 10.0 miles NNW 12.7 mph 19.6 mph N/A   Clear
4:54 PM 43.0°F 23.0°F 45% 29.95 in 10.0 miles NW 13.8 mph 21.9 mph N/A   Clear
5:54 PM 39.9°F 21.9°F 49% 30.00 in 10.0 miles WNW 6.9 mph - N/A   Clear
6:54 PM 39.0°F 21.9°F 50% 30.01 in 10.0 miles NW 9.2 mph - N/A   Clear
7:54 PM 37.0°F 21.9°F 54% 29.99 in 10.0 miles NNW 8.1 mph - N/A   Clear
8:54 PM 35.1°F 21.9°F 59% 29.97 in 10.0 miles NW 4.6 mph - N/A   Clear
9:54 PM 33.1°F 21.9°F 64% 29.97 in 10.0 miles SSW 3.5 mph - N/A   Clear
10:54 PM 32.0°F 21.9°F 66% 29.99 in 10.0 miles SW 3.5 mph - N/A   Clear
11:54 PM 33.1°F 21.9°F 64% 29.99 in 10.0 miles West 3.5 mph - N/A   Clear
Astronomy
Sunrise:06:56 AM (EST) Moon Rise:07:52 AM (EST)2/12
Sunset:05:32 PM (EST) Moon Set:08:30 PM (EST)2/12
Moon Phase
Feb. 12 Feb. 17 Feb. 25 Mar. 04 Mar. 11

Copyright © 2014 The Weather Underground, Inc.